This demonstration page uses our WeatherBlox Daily Observations layout. Learn more.

Left ArrowRight Arrow

39.01783, -85.05884

Hourly Observations for December 7, 2020

Temp ( °F °C ) Dew Point ( °F °C ) Humidity (%) Winds ( mph kmh ) Pressure ( in mb ) Visibility ( mi km ) Precip ( " mm )
12:52 am 00:52 Cloudy 34 1.1 26 -3.3 73 73 N 10 17 29.94 1014 10 16 N/A
12:54 am 00:54 Cloudy 34 1.1 26 -3.3 73 73 N 12 19 29.97 1015 10 16 N/A
1:52 am 01:52 Cloudy 34 1.1 25 -3.9 70 70 NNE 12 19 29.92 1013 10 16 N/A
2:52 am 02:52 Cloudy 33 0.6 24 -4.4 70 70 NNE 9 15 29.93 1013 10 16 N/A
3:40 am 03:40 Cloudy 33 0.6 24 -4.4 70 70 N 10 17 29.96 1015 10 16 N/A
3:52 am 03:52 Cloudy 33 0.6 24 -4.4 70 70 N 10 17 29.93 1014 10 16 N/A
4:37 am 04:37 Cloudy 33 0.6 24 -4.4 70 70 NNE 14 22 29.96 1015 10 16 N/A
4:52 am 04:52 Cloudy 33 0.6 25 -3.9 72 72 NNE 9 15 29.93 1014 10 16 N/A
5:52 am 05:52 Cloudy 32 undefined 24 -4.4 73 73 NNE 12 19 29.93 1014 10 16 N/A
6:52 am 06:52 Cloudy 32 undefined 24 -4.4 73 73 N 12 19 29.95 1014 10 16 N/A
7:52 am 07:52 Cloudy 32 undefined 23 -5 69 69 N 10 17 29.97 1015 10 16 N/A
7:59 am 07:59 Cloudy 32 undefined 23 -5 69 69 N 14 22 30.01 1016 10 16 N/A
8:52 am 08:52 Cloudy 31 -0.6 24 -4.4 76 76 NNW 9 15 29.98 1015 10 16 N/A
9:52 am 09:52 Cloudy 32 undefined 22 -5.6 66 66 N 8 13 30.00 1016 10 16 N/A
10:52 am 10:52 Cloudy 31 -0.6 21 -6.1 67 67 NNW 12 19 30.01 1016 10 16 N/A
11:52 am 11:52 Cloudy 32 undefined 20 -6.7 61 61 N 12 19 30.01 1016 10 16 N/A
12:52 pm 12:52 Cloudy 32 undefined 20 -6.7 61 61 N 10 17 30.00 1016 10 16 N/A
1:52 pm 13:52 Cloudy 32 undefined 20 -6.7 61 61 N 9 15 30.00 1016 10 16 N/A
2:52 pm 14:52 Cloudy 32 undefined 20 -6.7 61 61 NNW 10 17 30.00 1016 10 16 N/A
3:21 pm 15:21 Mostly Cloudy 33 0.6 20 -6.7 58 58 NNW 8 13 30.04 1017 10 16 N/A
3:52 pm 15:52 Cloudy 32 undefined 20 -6.7 61 61 NW 9 15 30.02 1017 10 16 N/A
4:52 pm 16:52 Mostly Cloudy 31 -0.6 20 -6.7 64 64 NW 8 13 30.04 1017 10 16 N/A
5:52 pm 17:52 Mostly Cloudy 30 -1.1 20 -6.7 66 66 NW 8 13 30.06 1018 10 16 N/A
6:52 pm 18:52 Cloudy 30 -1.1 20 -6.7 66 66 NW 13 20 30.08 1019 10 16 N/A
7:52 pm 19:52 Cloudy 30 -1.1 20 -6.7 66 66 NW 8 13 30.09 1019 10 16 N/A
8:52 pm 20:52 Cloudy 29 -1.7 20 -6.7 69 69 W 5 7 30.10 1019 10 16 N/A
9:52 pm 21:52 Cloudy 29 -1.7 20 -6.7 69 69 WNW 5 7 30.10 1019 10 16 N/A
10:52 pm 22:52 Cloudy 29 -1.7 21 -6.1 72 72 W 5 7 30.11 1020 10 16 N/A
11:52 pm 23:52 Cloudy 29 -1.7 21 -6.1 72 72 W 6 9 30.12 1020 10 16 N/A

Powered by AerisWeather